This demonstration page uses our WeatherBlox Daily Observations layout. Learn more.

Left ArrowRight Arrow

41.12389, -100.76542

Hourly Observations for May 4, 2017

Temp ( °F °C ) Dew Point ( °F °C ) Humidity (%) Winds ( mph kmh ) Pressure ( in mb ) Visibility ( mi km ) Precip ( " mm )
12:53 am 00:53 Clear 35 1.7 32 0 89 89 Calm 30.25 1024 10 16 0.00 0.00
1:53 am 01:53 Clear 34 1.1 32 0 92 92 NW 6 9 30.24 1024 10 16 0.00 0.00
2:53 am 02:53 Clear 32 0 29 -1.7 88 88 NW 3 6 30.24 1024 10 16 0.00 0.00
3:53 am 03:53 Clear 31 -0.6 30 -1.1 96 96 NW 7 11 30.22 1024 10 16 0.00 0.00
4:53 am 04:53 Clear 29 -1.7 28 -2.2 96 96 NW 5 7 30.23 1024 10 16 0.00 0.00
5:53 am 05:53 Clear 29 -1.7 27 -2.8 92 92 NW 7 11 30.22 1023 10 16 0.00 0.00
6:53 am 06:53 Sunny 30 -1.1 29 -1.7 96 96 NW 6 9 30.22 1024 10 16 0.00 0.00
7:53 am 07:53 Sunny 36 2.2 33 0.6 89 89 NW 6 9 30.23 1024 10 16 0.00 0.00
8:53 am 08:53 Sunny 46 7.8 37 2.8 71 71 W 7 11 30.24 1024 10 16 0.00 0.00
9:53 am 09:53 Sunny 54 12.2 40 4.4 59 59 WNW 8 13 30.22 1023 10 16 0.00 0.00
10:53 am 10:53 Sunny 61 16.1 38 3.3 43 43 W 7 11 30.22 1023 10 16 0.00 0.00
11:53 am 11:53 Sunny 64 17.8 37 2.8 37 37 WNW 12 19 30.20 1023 10 16 0.00 0.00
12:53 pm 12:53 Sunny 65 18.3 36 2.2 34 34 VRB 5 7 30.20 1023 10 16 0.00 0.00
1:53 pm 13:53 Sunny 67 19.4 37 2.8 33 33 W 10 17 30.17 1022 10 16 0.00 0.00
2:53 pm 14:53 Sunny 68 20 32 0 26 26 Calm 30.16 1021 10 16 0.00 0.00
3:53 pm 15:53 Sunny 70 21.1 35 1.7 28 28 NW 9 15 30.14 1021 10 16 0.00 0.00
4:53 pm 16:53 Sunny 71 21.7 35 1.7 27 27 WNW 3 6 30.13 1020 10 16 0.00 0.00
5:53 pm 17:53 Sunny 70 21.1 33 0.6 26 26 VRB 5 7 30.12 1020 10 16 0.00 0.00
6:53 pm 18:53 Sunny 71 21.7 36 2.2 28 28 W 7 11 30.10 1019 10 16 0.00 0.00
7:53 pm 19:53 Sunny 68 20 36 2.2 31 31 WNW 3 6 30.09 1019 10 16 0.00 0.00
8:53 pm 20:53 Clear 57 13.9 37 2.8 47 47 E 3 6 30.09 1019 10 16 0.00 0.00
9:53 pm 21:53 Clear 48 8.9 40 4.4 74 74 ESE 3 6 30.10 1019 10 16 0.00 0.00
10:53 pm 22:53 Clear 45 7.2 35 1.7 68 68 E 7 11 30.11 1020 10 16 0.00 0.00
11:53 pm 23:53 Clear 42 5.6 35 1.7 76 76 ESE 5 7 30.11 1020 10 16 0.00 0.00

Powered by AerisWeather